Regional Weather Roundup
Issued by NWS Memphis, TN

Home | Current Version | Previous Version | Text Only | Print | Product List | Glossary On
Versions: 1 2 3 4 5 6 7 8 9 10 11 12 13 14 15 16 17 18 19 20 21 22 23 24 25 26 27 28 29 30 31 32 33 34 35 36 37 38 39 40 41 42 43 44 45 46 47 48 49 50
000
ASUS44 KMEG 210810
RWRMEG
MEMPHIS CWA HOURLY WEATHER ROUNDUP
NATIONAL WEATHER SERVICE MEMPHIS TN
300 AM CDT SAT APR 21 2018

...WEST TENNESSEE...

CITY           SKY/WX    TMP DP  RH WIND       PRES   REMARKS
MEMPHIS INTL   MOCLDY    52  34  50 E8        30.22S
NWS MEMPHIS      N/A     46 N/A N/A MISG        N/A
JACKSON        FAIR      50  34  54 E5        30.26S
COVINGTON      CLEAR     48  37  66 E3        30.25S
SOMERVILLE       N/A     46  32  57 CALM      30.23R
BOLIVAR        CLEAR     39  37  93 CALM      30.24S
LEXINGTON      CLEAR     48  32  53 NE5       30.26S
SELMER         CLEAR     48  32  53 CALM      30.24S
DYERSBURG      FAIR      51  31  46 E6        30.27R
UNION CITY     CLEAR     50  32  50 E6        30.27S
PARIS          CLEAR     50  30  46 E7        30.28F
HUNTINGDON     CLEAR     46  32  57 NE7       30.27F


...EASTERN ARKANSAS...

CITY           SKY/WX    TMP DP  RH WIND       PRES   REMARKS
JONESBORO      FAIR      48  37  65 NE6       30.25R
WEST MEMPHIS   FAIR      54  35  48 E8        30.20F
BATESVILLE     PTCLDY    45  34  65 CALM      30.24S
NEWPORT        FAIR      48  37  65 E10       30.24R
WALNUT RIDGE   FAIR      45  37  73 NE8       30.25S
BLYTHEVILLE    FAIR      49  34  56 E8        30.25S
SEARCY         FAIR      50  37  61 NE7       30.21F
STUTTGART      FAIR      52  41  66 E7        30.19F
PINE BLUFF     FAIR      46  43  89 CALM      30.17F
MONTICELLO     FAIR      45  42  89 CALM      30.16F


...NORTH MISSISSIPPI...

CITY           SKY/WX    TMP DP  RH WIND       PRES   REMARKS
TUPELO         NOT AVBL
OXFORD         FAIR      52  36  54 VRB5      30.23S
BATESVILLE       N/A    N/A N/A N/A MISG        N/A
TUNICA           N/A     50  36  57 E5        30.21F
CLARKSDALE     CLEAR     52  41  66 E7        30.20F
CORINTH        FAIR      43  37  81 CALM      30.23F
GREENWOOD      FAIR      47  42  83 NE3       30.19F
COLUMBUS       FAIR      46  45  97 NE3       30.21S
STARKVILLE     FAIR      50  37  62 E5        30.22S
GOLDEN TRIANGL FAIR      51  38  60 E8        30.21F


...SOUTHEAST MISSOURI...

CITY           SKY/WX    TMP DP  RH WIND       PRES   REMARKS
KENNETT        FAIR      52  36  54 NE8       30.24F
MALDEN         FAIR      48  34  57 NE6       30.29S
WEST PLAINS    CLOUDY    46  26  45 NE6       30.26F
POPLAR BLUFF   FAIR      48  33  56 NE6       30.27F
CAPE GIRARDEAU FAIR      50  29  44 E6        30.29S


...NORTHWEST ALABAMA...

CITY           SKY/WX    TMP DP  RH WIND       PRES   REMARKS
MUSCLE SHOALS  FAIR      44  41  89 CALM      30.26F


...MIDDLE TENNESSEE...

CITY           SKY/WX    TMP DP  RH WIND       PRES   REMARKS
NASHVILLE      FAIR      47  30  51 CALM      30.31F
CLARKSVILLE    FAIR      46  28  49 E5        30.31F
COLUMBIA       CLEAR     39  39 100 CALM      30.27F
LEWISBURG      SUNNY     36  34  93 CALM      30.29S


...WESTERN KENTUCKY...

CITY           SKY/WX    TMP DP  RH WIND       PRES   REMARKS
PADUCAH        FAIR      43  34  70 E6        30.29F
FORT CAMPBELL  FAIR      47  29  49 E6        30.30F


...CENTRAL ARKANSAS...

CITY           SKY/WX    TMP DP  RH WIND       PRES   REMARKS
LITTLE ROCK    CLOUDY    50  40  68 NE5       30.18F


SKY/WX REPORTED AS FAIR MEANS FEW OR NO CLOUDS BELOW
12 THOUSAND FEET.




USA.gov is the U.S. government's official web portal to all federal, state and local government web resources and services.